GW5630 Weather Reports


time (UTC)temp
C
wind
direction
speed
KPH
gust
KPH
rain 1hr
cm
rain 24hr
cm
rain mn
cm
humidity
%
barometer
mb
20260506150509 14 246 6.4 17.7 0.25 0.71 0.71 90 1008.2
20260506150025 14 265 4.8 17.7 0.25 0.69 0.69 90 1008.2
20260506145506 14 259 6.4 17.7 0.25 0.66 0.66 90 1008.2
20260506145009 14 218 6.4 9.7 0.25 0.64 0.64 90 1008.1
20260506144511 14 248 4.8 14.5 0.23 0.61 0.61 90 1008.1
20260506144005 14 229 4.8 14.5 0.23 0.61 0.61 90 1007.9
20260506143505 14 260 6.4 16.1 0.23 0.58 0.58 90 1008.2
20260506143027 14 248 9.7 16.1 0.18 0.53 0.53 90 1008.2
20260506142506 14 257 4.8 14.5 0.20 0.53 0.53 90 1007.9
20260506142007 14 248 8.0 14.5 0.20 0.51 0.51 90 1008.0
20260506141528 14 258 6.4 20.9 0.20 0.48 0.48 89 1008.2
20260506141009 14 254 3.2 20.9 0.23 0.48 0.48 89 1008.1
20260506140507 14 261 6.4 17.7 0.23 0.46 0.46 89 1008.1
20260506140026 14 207 4.8 17.7 0.23 0.43 0.43 89 1008.1
20260506135514 14 230 8.0 17.7 0.23 0.41 0.41 89 1008.2
20260506135008 14 248 4.8 12.9 0.20 0.38 0.38 89 1008.3
20260506134528 14 270 3.2 11.3 0.25 0.38 0.38 88 1008.2
20260506134004 14 226 1.6 14.5 0.28 0.38 0.38 88 1008.2
20260506133505 14 269 6.4 14.5 0.28 0.36 0.36 88 1008.3
20260506133015 14 257 6.4 11.3 0.28 0.36 0.36 88 1008.5
20260506132511 14 241 4.8 11.3 0.28 0.33 0.33 88 1008.7
20260506132010 14 218 3.2 11.3 0.28 0.30 0.30 87 1008.7
20260506131520 14 244 3.2 11.3 0.28 0.28 0.28 86 1008.7
20260506131010 14 265 3.2 11.3 0.25 0.25 0.25 86 1008.7
20260506130506 14 234 6.4 12.9 0.23 0.23 0.23 86 1008.8
20260506130025 14 235 4.8 12.9 0.20 0.20 0.20 85 1008.8
20260506125510 14 255 6.4 11.3 0.18 0.18 0.18 84 1008.9
20260506125010 15 243 6.4 11.3 0.18 0.18 0.18 84 1008.9
20260506124525 15 224 6.4 12.9 0.13 0.13 0.13 83 1009.0
20260506124010 15 257 8.0 12.9 0.10 0.10 0.10 82 1008.9
20260506123510 15 273 4.8 14.5 0.08 0.08 0.08 81 1008.9
20260506123010 15 253 6.4 14.5 0.08 0.08 0.08 80 1008.9
20260506122506 15 261 6.4 11.3 0.05 0.05 0.05 78 1008.8
20260506122011 15 240 8.0 11.3 0.03 0.03 0.03 77 1008.8
20260506121523 16 250 3.2 14.5 0.00 0.00 0.00 76 1008.7
20260506121007 16 262 6.4 14.5 0.00 0.00 0.00 76 1008.7
20260506120507 16 254 6.4 14.5 0.00 0.00 0.00 75 1008.6
20260506120033 16 236 6.4 14.5 0.00 0.00 0.00 74 1008.7
20260506115511 16 244 4.8 12.9 0.00 0.00 0.00 73 1008.6
20260506115009 16 225 4.8 12.9 0.00 0.00 0.00 73 1008.5
20260506114526 16 256 6.4 12.9 0.00 0.00 0.00 72 1008.5
20260506114012 16 201 3.2 12.9 0.00 0.00 0.00 71 1008.5
20260506113509 16 232 6.4 12.9 0.00 0.00 0.00 70 1008.4
20260506113030 16 252 4.8 12.9 0.00 0.00 0.00 70 1008.3
20260506112510 16 250 1.6 14.5 0.00 0.00 0.00 70 1008.3
20260506112015 16 230 8.0 16.1 0.00 0.00 0.00 68 1008.3
20260506111516 17 227 4.8 16.1 0.00 0.00 0.00 67 1008.3
20260506111010 17 254 4.8 11.3 0.00 0.00 0.00 67 1008.3
20260506110504 17 238 4.8 14.5 0.00 0.00 0.00 66 1008.2
20260506110020 17 259 6.4 14.5 0.00 0.00 0.00 66 1008.1
20260506105505 17 246 3.2 12.9 0.00 0.00 0.00 66 1008.1
20260506105008 17 221 4.8 12.9 0.00 0.00 0.00 65 1008.1
20260506104523 17 263 6.4 12.9 0.00 0.00 0.00 65 1008.0
20260506104009 17 259 6.4 11.3 0.00 0.00 0.00 65 1008.0
20260506103511 17 243 4.8 12.9 0.00 0.00 0.00 64 1007.9
20260506103026 17 246 4.8 12.9 0.00 0.00 0.00 64 1007.7
20260506102509 17 225 4.8 14.5 0.00 0.00 0.00 63 1007.7
20260506102010 17 265 3.2 14.5 0.00 0.00 0.00 63 1007.7
20260506101528 17 249 4.8 9.7 0.00 0.00 0.00 62 1007.6
20260506101010 17 242 4.8 12.9 0.00 0.00 0.00 62 1007.6
20260506100508 17 252 3.2 12.9 0.00 0.00 0.00 61 1007.7
20260506100018 17 257 4.8 12.9 0.00 0.00 0.00 61 1007.6
20260506095507 17 232 6.4 12.9 0.00 0.00 0.00 60 1007.6
20260506095005 17 238 4.8 12.9 0.00 0.00 0.00 60 1007.7
20260506094524 17 266 3.2 12.9 0.00 0.00 0.00 60 1007.8
20260506094011 17 263 6.4 12.9 0.00 0.00 0.00 59 1007.8
20260506093511 17 229 3.2 9.7 0.00 0.00 0.00 59 1007.8
20260506093024 17 223 3.2 11.3 0.00 0.00 0.00 59 1007.9
20260506092507 17 227 4.8 12.9 0.00 0.00 0.00 58 1008.0
20260506092011 17 246 6.4 12.9 0.00 0.00 0.00 58 1008.0
20260506091531 17 244 4.8 12.9 0.00 0.00 0.00 58 1007.9
20260506091009 17 232 6.4 12.9 0.00 0.00 0.00 58 1008.1
20260506090509 17 226 4.8 12.9 0.00 0.00 0.00 57 1008.0
20260506090041 17 221 6.4 12.9 0.00 0.00 0.00 57 1008.1
20260506085512 17 234 8.0 14.5 0.00 0.00 0.00 57 1008.0
20260506085008 17 226 8.0 14.5 0.00 0.00 0.00 56 1007.9
20260506084523 18 225 8.0 12.9 0.00 0.00 0.00 56 1008.1
20260506084009 18 227 6.4 14.5 0.00 0.00 0.00 55 1008.1
20260506083509 18 228 8.0 17.7 0.00 0.00 0.00 55 1008.0
20260506083028 18 228 8.0 16.1 0.00 0.00 0.00 55 1008.1
20260506082502 18 236 11.3 14.5 0.00 0.00 0.00 54 1008.0
20260506082001 18 259 8.0 14.5 0.00 0.00 0.00 54 1008.1
20260506081510 18 255 6.4 14.5 0.00 0.00 0.00 54 1008.1
20260506081005 18 242 8.0 14.5 0.00 0.00 0.00 53 1008.1
20260506080503 18 254 9.7 16.1 0.00 0.00 0.00 53 1008.0
20260506073508 18 233 9.7 16.1 0.00 0.00 0.00 51 1008.1
20260506073022 18 239 9.7 14.5 0.00 0.00 0.00 51 1008.0
20260506072513 18 238 6.4 14.5 0.00 0.00 0.00 50 1008.0
20260506072001 18 227 8.0 14.5 0.00 0.00 0.00 50 1008.2
20260506071507 18 232 6.4 17.7 0.00 0.00 0.00 50 1008.2
20260506071001 18 246 6.4 17.7 0.00 0.00 0.00 50 1008.3
20260506070502 18 263 9.7 17.7 0.00 0.00 0.00 49 1008.3
20260506062508 18 246 8.0 16.1 0.00 0.00 0.00 47 1008.9
20260506062010 18 232 8.0 16.1 0.00 0.00 0.00 48 1009.0
20260506061543 18 245 6.4 14.5 0.00 0.00 0.00 47 1009.1
20260506061001 18 251 8.0 14.5 0.00 0.00 0.00 47 1009.1
20260506060504 18 267 8.0 14.5 0.00 0.00 0.00 46 1009.1
20260506051009 18 257 9.7 12.9 0.00 0.00 0.00 45 1009.6
20260506050511 18 229 8.0 12.9 0.00 0.00 0.00 45 1009.6
20260506045002 19 248 8.0 14.5 0.00 0.00 0.00 45 1009.6
20260506044520 19 234 6.4 11.3 0.00 0.00 0.00 45 1009.6
20260506044007 19 261 4.8 14.5 0.00 0.00 0.00 45 1009.5
20260506043503 19 241 8.0 14.5 0.00 0.00 0.00 45 1009.5
20260506043034 19 249 6.4 12.9 0.00 0.00 0.00 45 1009.5
20260506042507 19 245 6.4 12.9 0.00 0.00 0.00 45 1009.6
20260506042008 19 250 6.4 12.9 0.00 0.00 0.00 44 1009.6
20260506041526 19 246 6.4 9.7 0.00 0.00 0.00 44 1009.6
20260506041007 19 247 6.4 12.9 0.00 0.00 0.00 44 1009.7
20260506040512 19 255 4.8 12.9 0.00 0.00 0.00 44 1009.7
20260506040025 19 254 8.0 11.3 0.00 0.00 0.00 44 1009.6
20260506035506 20 236 6.4 12.9 0.00 0.00 0.00 44 1009.7
20260506035016 20 248 6.4 12.9 0.00 0.00 0.00 44 1009.7
20260506034512 20 249 6.4 12.9 0.00 0.00 0.00 44 1009.8
20260506034001 20 250 8.0 12.9 0.00 0.00 0.00 43 1009.8
20260506033505 20 254 4.8 11.3 0.00 0.00 0.00 43 1009.7
20260506033018 20 257 4.8 11.3 0.00 0.00 0.00 43 1009.7
20260506032503 20 261 6.4 11.3 0.00 0.00 0.00 44 1009.7
20260506032008 20 235 6.4 11.3 0.00 0.00 0.00 43 1009.7
20260506031524 20 234 4.8 11.3 0.00 0.00 0.00 44 1009.6
20260506031011 20 242 4.8 11.3 0.00 0.00 0.00 43 1009.6
20260506030507 20 227 4.8 11.3 0.00 0.00 0.00 44 1009.6
20260506030027 20 240 4.8 9.7 0.00 0.00 0.00 44 1009.7
20260506025509 19 254 3.2 9.7 0.00 0.00 0.00 44 1009.7
20260506025011 19 285 4.8 9.7 0.00 0.00 0.00 44 1009.7
20260506024540 19 254 1.6 4.8 0.00 0.00 0.00 44 1009.7
20260506024014 19 260 1.6 4.8 0.00 0.00 0.00 45 1009.7
20260506023513 19 297 1.6 4.8 0.00 0.00 0.00 45 1009.7
20260506023015 19 257 1.6 4.8 0.00 0.00 0.00 44 1009.7
20260506022508 19 293 0.0 1.6 0.00 0.00 0.00 44 1009.7
20260506022004 20 279 0.0 1.6 0.00 0.00 0.00 44 1009.8
20260506021521 20 277 0.0 3.2 0.00 0.00 0.00 43 1009.7
20260506021012 20 277 0.0 3.2 0.00 0.00 0.00 43 1009.7
20260506020509 20 277 0.0 3.2 0.00 0.00 0.00 42 1009.8
20260506020024 21 277 0.0 3.2 0.00 0.00 0.00 41 1009.9
20260506015509 21 278 0.0 3.2 0.00 0.00 0.00 41 1009.8
20260506015009 21 258 0.0 3.2 0.00 0.00 0.00 40 1009.7
20260506014530 21 261 0.0 4.8 0.00 0.00 0.00 40 1009.6
20260506014010 21 249 1.6 8.0 0.00 0.00 0.00 39 1009.6
20260506013512 21 252 4.8 8.0 0.00 0.00 0.00 39 1009.6
20260506013025 21 272 1.6 8.0 0.00 0.00 0.00 39 1009.5
20260506012510 22 242 1.6 6.4 0.00 0.00 0.00 40 1009.5
20260506012007 22 252 0.0 11.3 0.00 0.00 0.00 40 1009.3
20260506011515 22 249 4.8 11.3 0.00 0.00 0.00 39 1009.3
20260506011006 22 264 3.2 11.3 0.00 0.00 0.00 39 1009.2
20260506010502 22 242 6.4 12.9 0.00 0.00 0.00 38 1009.0
20260506010006 22 267 4.8 12.9 0.00 0.00 0.00 39 1009.0
20260506005502 22 212 4.8 12.9 0.00 0.00 0.00 39 1009.0
20260506005002 22 254 6.4 12.9 0.00 0.00 0.00 38 1008.8
20260506004506 22 323 3.2 11.3 0.00 0.00 0.00 39 1008.8
20260506004004 22 245 4.8 9.7 0.00 0.00 0.00 39 1008.8
20260506003504 22 257 4.8 9.7 0.00 0.00 0.00 39 1008.8
20260506003008 22 248 3.2 6.4 0.00 0.00 0.00 39 1008.7
20260506002506 22 260 3.2 9.7 0.00 0.00 0.00 39 1008.7
20260506002005 22 232 1.6 11.3 0.00 0.00 0.00 40 1008.6
20260506001527 22 236 4.8 11.3 0.00 0.00 0.00 39 1008.6
20260506001006 22 246 4.8 16.1 0.00 0.00 0.00 39 1008.5
20260506000503 22 257 9.7 16.1 0.00 0.00 0.00 39 1008.4
20260506000019 22 244 4.8 14.5 0.00 0.00 0.00 39 1008.3
20260505235507 23 248 8.0 14.5 0.00 0.00 0.00 39 1008.3
20260505235003 23 254 9.7 14.5 0.00 0.00 0.00 39 1008.2
20260505234503 23 220 8.0 16.1 0.00 0.00 0.00 39 1008.3
20260505234004 23 212 4.8 19.3 0.00 0.00 0.00 39 1008.2
20260505233504 23 230 9.7 19.3 0.00 0.00 0.00 39 1008.1
20260505233006 23 250 4.8 12.9 0.00 0.00 0.00 40 1008.1
20260505232507 23 266 6.4 14.5 0.00 0.00 0.00 40 1008.2
20260505232006 23 269 4.8 14.5 0.00 0.00 0.00 39 1008.1
20260505231510 23 227 6.4 17.7 0.00 0.00 0.00 39 1008.1
20260505231008 23 239 11.3 17.7 0.00 0.00 0.00 38 1008.1
20260505230505 23 257 4.8 16.1 0.00 0.00 0.00 39 1008.1
20260505230018 23 266 9.7 16.1 0.00 0.00 0.00 39 1008.0
20260505225508 23 263 8.0 17.7 0.00 0.00 0.00 39 1008.0
20260505225004 23 244 6.4 17.7 0.00 0.00 0.00 39 1008.1
20260505224520 23 263 9.7 22.5 0.00 0.00 0.00 39 1008.1
20260505224003 23 253 12.9 22.5 0.00 0.00 0.00 39 1008.0
20260505223503 23 244 9.7 20.9 0.00 0.00 0.00 40 1008.1
20260505223004 23 260 4.8 14.5 0.00 0.00 0.00 41 1007.9
20260505222504 23 239 6.4 14.5 0.00 0.00 0.00 41 1007.9
20260505222005 23 258 4.8 14.5 0.00 0.00 0.00 41 1008.0
20260505221508 23 249 6.4 12.9 0.00 0.00 0.00 40 1008.1
20260505221004 23 257 6.4 11.3 0.00 0.00 0.00 41 1008.0
20260505220503 23 250 4.8 11.3 0.00 0.00 0.00 41 1008.0
20260505220014 23 261 4.8 14.5 0.00 0.00 0.00 41 1007.9
20260505215506 23 218 6.4 16.1 0.00 0.00 0.00 41 1007.9
20260505215006 23 243 9.7 20.9 0.00 0.00 0.00 40 1007.8
20260505214524 23 247 9.7 20.9 0.00 0.00 0.00 40 1007.9
20260505214008 23 263 6.4 16.1 0.00 0.00 0.00 41 1007.8
20260505213507 23 236 6.4 12.9 0.00 0.00 0.00 41 1007.8
20260505213024 23 250 8.0 19.3 0.00 0.00 0.00 40 1007.8
20260505212503 23 246 4.8 19.3 0.00 0.00 0.00 40 1007.8
20260505212003 23 242 11.3 19.3 0.00 0.00 0.00 40 1007.8
20260505211508 23 227 12.9 24.1 0.00 0.00 0.00 39 1007.7
20260505211004 23 286 11.3 24.1 0.00 0.00 0.00 39 1007.7
20260505210508 23 242 6.4 17.7 0.00 0.00 0.00 40 1007.7
20260505210012 23 260 8.0 20.9 0.00 0.00 0.00 39 1007.6
20260505205505 23 240 8.0 20.9 0.00 0.00 0.00 39 1007.6
20260505205007 23 244 0.0 8.0 0.00 0.00 0.00 40 1007.6
20260505204517 23 236 0.0 0.0 0.00 0.00 0.00 38 1007.6
20260505204008 24 225 0.0 3.2 0.00 0.00 0.00 38 1007.6
20260505203509 24 227 0.0 25.7 0.00 0.00 0.00 38 1007.4
20260505203022 24 247 0.0 25.7 0.00 0.00 0.00 37 1007.5
20260505202508 24 234 9.7 19.3 0.00 0.00 0.00 38 1007.5
20260505202008 25 236 6.4 20.9 0.00 0.00 0.00 37 1007.3
20260505201510 25 225 9.7 25.7 0.00 0.00 0.00 38 1007.7
20260505201004 25 232 12.9 22.5 0.00 0.00 0.00 37 1007.6
20260505200505 25 229 12.9 24.1 0.00 0.00 0.00 37 1007.7
20260505200008 25 232 9.7 24.1 0.00 0.00 0.00 36 1007.6
20260505195508 25 253 9.7 19.3 0.00 0.00 0.00 36 1007.6
20260505195006 26 225 6.4 19.3 0.00 0.00 0.00 37 1007.7
20260505194527 26 232 9.7 19.3 0.00 0.00 0.00 36 1007.7
20260505194006 26 236 8.0 17.7 0.00 0.00 0.00 35 1007.5
20260505193510 26 213 6.4 17.7 0.00 0.00 0.00 38 1007.6
20260505193018 26 189 6.4 20.9 0.00 0.00 0.00 37 1007.6
20260505192516 26 215 3.2 20.9 0.00 0.00 0.00 39 1007.6
20260505192009 26 252 11.3 20.9 0.00 0.00 0.00 36 1007.7
20260505191526 26 232 9.7 22.5 0.00 0.00 0.00 36 1007.9
20260505191007 26 243 12.9 22.5 0.00 0.00 0.00 35 1007.9
20260505190503 25 261 11.3 20.9 0.00 0.00 0.00 36 1007.9
20260505190007 25 238 11.3 20.9 0.00 0.00 0.00 38 1008.1
20260505185507 25 237 9.7 19.3 0.00 0.00 0.00 36 1008.2
20260505185010 25 232 8.0 17.7 0.00 0.00 0.00 40 1008.3
20260505184514 24 273 9.7 22.5 0.00 0.00 0.00 39 1008.3
20260505184006 25 249 4.8 22.5 0.00 0.00 0.00 36 1008.5
20260505183507 25 241 11.3 20.9 0.00 0.00 0.00 36 1008.3
20260505183027 25 246 6.4 22.5 0.00 0.00 0.00 37 1008.5
20260505182511 25 249 14.5 24.1 0.00 0.00 0.00 35 1008.7
20260505182010 25 246 16.1 25.7 0.00 0.00 0.00 35 1008.7
20260505181524 25 264 11.3 25.7 0.00 0.00 0.00 36 1008.8
20260505181009 25 241 8.0 17.7 0.00 0.00 0.00 38 1008.7
20260505180508 25 248 11.3 24.1 0.00 0.00 0.00 39 1008.8
20260505180026 25 250 6.4 24.1 0.00 0.00 0.00 39 1008.9
20260505175510 25 257 14.5 24.1 0.00 0.00 0.00 36 1008.8
20260505175005 25 217 14.5 24.1 0.00 0.00 0.00 37 1008.8
20260505174509 25 229 12.9 24.1 0.00 0.00 0.00 38 1008.7
20260505174006 25 227 6.4 29.0 0.00 0.00 0.00 40 1008.8
20260505173509 25 248 11.3 29.0 0.00 0.00 0.00 40 1009.0
20260505173017 25 273 9.7 19.3 0.00 0.00 0.00 39 1008.8
20260505172505 25 212 11.3 24.1 0.00 0.00 0.00 40 1008.7
20260505172005 25 254 17.7 24.1 0.00 0.00 0.00 39 1008.7
20260505171521 25 234 14.5 24.1 0.00 0.00 0.00 40 1009.0
20260505171006 25 251 11.3 24.1 0.00 0.00 0.00 40 1009.0
20260505170507 25 252 11.3 20.9 0.00 0.00 0.00 40 1009.1
20260505170022 25 213 6.4 16.1 0.00 0.00 0.00 41 1009.0
20260505165509 25 273 8.0 24.1 0.00 0.00 0.00 39 1009.2
20260505165008 25 247 12.9 20.9 0.00 0.00 0.00 41 1009.3
20260505164526 25 267 4.8 22.5 0.00 0.00 0.00 41 1009.3
20260505164011 25 223 6.4 22.5 0.00 0.00 0.00 43 1009.4
20260505163507 25 253 4.8 12.9 0.00 0.00 0.00 41 1009.6
20260505163026 25 266 8.0 17.7 0.00 0.00 0.00 40 1009.5
20260505162505 25 234 8.0 17.7 0.00 0.00 0.00 41 1009.6
20260505162010 25 241 4.8 19.3 0.00 0.00 0.00 42 1009.6
20260505161519 24 244 11.3 17.7 0.00 0.00 0.00 43 1009.7
20260505161007 24 265 8.0 17.7 0.00 0.00 0.00 42 1009.6
20260505160514 24 321 8.0 20.9 0.00 0.00 0.00 43 1009.6
20260505153010 23 222 8.0 19.3 0.00 0.00 0.00 46 1010.0
20260505152506 23 223 12.9 17.7 0.00 0.00 0.00 47 1010.0
20260505152011 23 257 6.4 17.7 0.00 0.00 0.00 48 1010.1
20260505151528 23 232 4.8 14.5 0.00 0.00 0.00 49 1010.0
20260505151007 23 227 8.0 20.9 0.00 0.00 0.00 49 1010.0